Vorticity
9 10 5 1 4 4 4 4 1 6 12 9 6 5 10 12 10 10 9 7 8 10 6 4 4 4 5 5 5 5 5 7 6 6 3 2 3 3 3 1 1 2 2 3
25 15 11 8 7 4 4 2 2 4 -2 9 11 5 4 10 6 9 10 10 7 6 7 7 5 3 3 4 5 4 5 5 6 7 6 4 3 3 2 3 3 3 3 3
21 38 9 7 4 8 6 3 3 1 5 1 6 10 8 1 9 8 9 6 9 8 8 5 5 5 4 4 5 6 5 5 6 5 5 6 6 5 4 4 5 3 1 1
14 24 26 13 16 6 8 2 6 4 2 3 3 2 7 10 5 4 11 8 7 7 8 8 6 7 7 5 6 7 8 6 5 6 7 7 5 5 5 5 3 2 4 3
33 13 23 21 19 14 16 1 6 10 9 -1 7 7 3 6 11 4 3 10 6 7 6 7 7 6 5 6 6 7 8 8 7 6 6 6 7 6 5 5 5 6 6 4
28 24 17 19 26 21 15 8 48 1 13 22 4 1 10 5 4 10 13 0 6 7 7 8 7 8 7 8 7 5 5 6 7 7 6 6 6 7 9 7 6 5 5 4
20 36 26 18 14 17 32 9 -26 36 33 13 -0 8 3 3 5 7 8 14 1 4 8 6 8 9 8 7 7 7 6 5 6 6 7 7 6 7 7 7 7 6 5 3
14 23 36 30 12 32 10 22 -0 -50 27 12 10 26 17 5 4 7 4 8 11 3 4 9 6 6 8 7 6 5 5 5 4 4 5 5 5 6 6 6 6 6 5 5
25 13 -4 38 24 4 51 12 38 -36 65 14 30 16 25 3 8 4 8 4 6 7 8 -1 8 8 7 6 8 6 5 5 5 6 5 5 5 5 5 4 4 4 5 5
17 22 19 21 29 -11 15 24 -21 19 -54 55 15 6 23 29 3 6 3 6 7 4 8 8 -0 5 8 6 6 4 5 5 5 5 5 4 3 4 4 4 4 4 4 4
8 18 18 18 28 19 17 26 19 15 -29 6 68 23 15 -4 11 11 7 5 4 8 6 5 8 4 4 3 7 5 5 5 5 4 5 5 5 5 4 4 4 4 4 5
19 15 7 22 13 32 5 18 25 -3 7 -62 19 -9 15 48 29 -1 14 8 6 7 6 8 6 5 4 3 7 3 6 6 5 5 4 4 3 4 4 4 6 6 6 6
27 21 8 11 35 39 -1 17 23 -21 42 8 -30 16 44 -5 20 33 6 8 11 3 8 7 7 12 7 6 6 8 9 6 4 2 2 3 4 4 4 4 5 6 6 5
24 17 16 15 12 36 32 0 24 3 -36 14 22 -24 27 37 55 -1 3 9 16 4 3 5 7 7 5 7 6 8 6 3 6 5 5 5 7 6 5 4 5 4 4 4
16 20 6 21 21 2 46 29 17 24 9 -24 -21 4 -16 11 -1 40 17 14 17 9 11 11 6 5 10 10 4 4 6 11 12 5 3 4 6 5 4 3 2 3 3 4
23 11 20 10 18 30 12 30 30 52 4 14 -1 -15 24 -26 49 7 -4 16 29 31 29 20 18 14 10 7 6 9 11 8 7 6 11 12 8 6 5 5 5 6 6 8
25 18 8 10 13 19 20 21 5 32 40 21 8 1 -6 2 19 21 25 29 10 31 15 8 18 20 20 26 29 28 23 21 26 21 14 11 9 9 9 8 10 10 8 8
23 23 22 8 3 10 14 34 22 16 21 37 33 21 28 -7 -13 5 2 34 12 -13 23 13 18 17 12 -1 -1 1 12 8 6 8 13 16 19 17 15 12 10 11 10 7
9 7 23 24 18 -3 12 7 12 11 26 1 28 38 25 30 5 -12 -25 21 15 5 24 9 12 5 6 2 6 12 9 16 7 9 11 10 10 11 8 8 15 16 12 13
14 14 14 11 21 35 0 9 15 11 15 13 10 20 25 28 29 39 -2 -6 6 25 9 4 9 5 18 14 15 5 0 8 22 14 16 17 15 14 13 15 12 5 9 12
8 13 16 17 18 21 36 8 2 13 11 19 14 17 11 25 6 14 38 34 -0 -8 -5 11 16 3 -1 2 21 16 21 12 13 15 13 10 8 8 10 13 19 14 8 6
7 5 7 13 14 21 20 34 7 9 7 9 14 15 18 12 34 15 9 21 24 21 16 13 14 28 8 2 13 24 5 8 3 3 9 8 10 17 19 8 5 9 19 14
8 7 4 4 6 13 13 18 26 30 14 3 3 2 14 18 12 17 23 10 7 9 15 19 14 12 28 16 -2 8 18 -1 6 3 9 13 10 5 5 12 15 9 6 9
14 12 9 4 4 4 6 9 11 15 24 38 20 5 -1 2 6 10 15 23 17 18 21 7 0 58 -11 -1 10 7 3 5 13 15 18 8 14 19 18 15 17 13 14 18
11 11 12 13 13 6 5 5 6 11 11 13 25 40 19 6 0 -1 -2 -2 3 16 19 19 18 12 31 41 17 21 8 9 27 6 -3 2 16 19 18 18 17 22 13 22
11 9 5 5 5 9 13 13 5 5 4 8 12 15 22 38 32 8 5 2 -2 2 4 4 10 15 12 23 30 40 41 12 17 5 7 14 4 12 8 7 17 14 6 7
Height
5553 5554 5567 5596 5607 5616 5618 5623 5633 5648 5659 5662 5671 5674 5685 5688 5694 5702 5711 5717 5725 5733 5741 5748 5756 5762 5769 5776 5782 5787 5793 5798 5804 5809 5813 5818 5822 5825 5829 5832 5836 5838 5842 5845
5525 5531 5566 5576 5578 5586 5594 5604 5617 5628 5642 5649 5654 5660 5667 5677 5683 5693 5702 5710 5717 5724 5732 5739 5746 5753 5760 5766 5773 5779 5784 5790 5796 5801 5806 5810 5815 5819 5823 5827 5831 5835 5837 5840
5499 5523 5537 5537 5549 5561 5571 5586 5599 5611 5624 5632 5638 5641 5650 5662 5671 5680 5689 5697 5705 5714 5721 5729 5736 5744 5752 5758 5763 5770 5777 5782 5787 5793 5798 5803 5808 5813 5817 5820 5824 5828 5830 5833
5483 5498 5506 5516 5525 5543 5551 5574 5582 5592 5603 5614 5618 5625 5631 5646 5656 5665 5675 5683 5690 5700 5709 5716 5725 5733 5741 5748 5754 5760 5766 5772 5778 5784 5789 5794 5799 5803 5807 5811 5814 5819 5823 5827
5466 5475 5486 5494 5510 5527 5538 5553 5566 5576 5583 5592 5601 5609 5619 5632 5642 5651 5661 5671 5679 5687 5696 5705 5713 5721 5729 5737 5744 5750 5756 5762 5768 5774 5780 5785 5790 5795 5798 5803 5807 5811 5815 5819
5448 5457 5467 5476 5492 5502 5525 5539 5549 5559 5566 5565 5585 5595 5602 5615 5631 5639 5648 5656 5666 5674 5684 5693 5701 5710 5718 5725 5732 5739 5746 5752 5758 5764 5770 5776 5781 5785 5790 5794 5798 5802 5806 5810
5435 5442 5449 5464 5477 5487 5504 5522 5536 5539 5539 5548 5569 5578 5587 5600 5615 5627 5636 5645 5653 5662 5671 5681 5690 5698 5706 5714 5721 5728 5734 5741 5747 5754 5760 5766 5771 5775 5780 5784 5789 5793 5798 5802
5426 5434 5438 5447 5459 5472 5486 5501 5513 5523 5525 5541 5552 5550 5566 5584 5598 5613 5624 5631 5640 5649 5659 5668 5678 5686 5695 5703 5710 5717 5724 5730 5737 5743 5749 5755 5760 5765 5770 5774 5779 5784 5788 5792
5418 5426 5430 5436 5448 5463 5471 5486 5501 5517 5522 5535 5531 5539 5554 5567 5578 5594 5608 5618 5626 5635 5645 5655 5665 5674 5682 5690 5698 5705 5712 5718 5725 5732 5738 5744 5749 5754 5759 5764 5769 5773 5778 5782
5416 5420 5423 5428 5437 5450 5460 5476 5490 5500 5510 5509 5514 5528 5535 5551 5564 5576 5590 5603 5613 5622 5631 5641 5651 5660 5669 5677 5685 5692 5699 5706 5712 5719 5725 5731 5737 5743 5749 5754 5758 5762 5766 5770
5413 5416 5420 5424 5429 5440 5451 5460 5473 5484 5495 5499 5500 5507 5524 5537 5550 5563 5576 5589 5598 5607 5616 5626 5636 5646 5655 5663 5671 5679 5686 5692 5699 5705 5712 5719 5725 5731 5737 5742 5747 5751 5755 5759
5410 5413 5416 5420 5424 5431 5439 5449 5459 5470 5478 5486 5492 5499 5509 5521 5536 5549 5560 5572 5583 5593 5602 5612 5622 5631 5640 5649 5658 5665 5672 5680 5686 5693 5699 5705 5712 5718 5724 5730 5735 5740 5744 5748
5408 5411 5413 5416 5420 5423 5430 5440 5450 5458 5468 5474 5486 5491 5499 5512 5523 5534 5545 5556 5567 5578 5588 5598 5608 5617 5627 5636 5644 5652 5659 5666 5672 5679 5685 5691 5698 5704 5709 5715 5722 5727 5732 5736
5407 5408 5411 5414 5416 5419 5426 5431 5439 5447 5457 5464 5475 5485 5492 5502 5512 5522 5533 5541 5551 5562 5574 5583 5593 5603 5612 5621 5629 5637 5645 5651 5658 5664 5670 5677 5683 5688 5694 5700 5707 5713 5718 5723
5407 5407 5409 5411 5413 5415 5419 5424 5430 5438 5445 5453 5465 5474 5484 5493 5501 5509 5519 5529 5539 5549 5559 5569 5579 5588 5597 5606 5614 5623 5629 5636 5643 5649 5655 5661 5668 5674 5680 5686 5692 5698 5704 5709
5407 5407 5408 5409 5410 5412 5415 5420 5424 5431 5436 5443 5452 5463 5472 5483 5492 5500 5508 5518 5526 5535 5545 5555 5564 5573 5582 5591 5599 5607 5613 5620 5626 5632 5640 5646 5652 5658 5664 5670 5676 5682 5688 5693
5407 5406 5406 5408 5409 5410 5414 5417 5420 5424 5430 5436 5443 5451 5464 5471 5478 5485 5497 5506 5514 5521 5531 5540 5549 5557 5565 5574 5582 5590 5596 5603 5609 5616 5622 5629 5635 5642 5648 5654 5660 5667 5672 5678
5407 5405 5405 5405 5407 5410 5410 5412 5416 5420 5424 5428 5435 5442 5452 5461 5467 5475 5484 5493 5502 5510 5518 5527 5535 5543 5551 5558 5566 5574 5581 5588 5594 5600 5607 5613 5619 5626 5632 5638 5644 5651 5656 5662
5407 5406 5405 5404 5404 5408 5409 5410 5413 5416 5421 5425 5429 5435 5440 5449 5457 5465 5474 5482 5489 5498 5506 5512 5521 5528 5536 5543 5550 5558 5565 5572 5578 5584 5590 5597 5603 5609 5615 5621 5627 5634 5639 5645
5407 5405 5404 5403 5402 5403 5406 5408 5410 5412 5417 5419 5423 5427 5432 5439 5447 5455 5463 5471 5477 5485 5493 5500 5508 5516 5523 5530 5536 5542 5549 5556 5561 5568 5574 5580 5586 5591 5597 5602 5609 5615 5622 5629
5407 5405 5403 5401 5401 5400 5401 5404 5407 5411 5417 5417 5421 5424 5428 5432 5438 5446 5452 5460 5466 5472 5479 5486 5493 5501 5508 5515 5522 5528 5534 5540 5546 5552 5558 5563 5569 5575 5580 5585 5591 5597 5604 5611
5407 5405 5403 5402 5401 5401 5399 5401 5404 5407 5408 5411 5414 5418 5423 5427 5431 5437 5441 5449 5455 5460 5467 5474 5481 5488 5494 5502 5510 5516 5521 5527 5533 5539 5543 5548 5554 5559 5565 5570 5574 5580 5586 5593
5407 5405 5404 5403 5401 5400 5399 5398 5399 5401 5404 5406 5409 5412 5416 5420 5424 5427 5431 5437 5443 5448 5454 5460 5467 5475 5480 5488 5495 5502 5508 5514 5520 5526 5530 5534 5539 5544 5548 5554 5558 5564 5570 5575
5404 5402 5401 5401 5400 5399 5398 5397 5397 5398 5399 5400 5403 5406 5409 5411 5415 5418 5423 5427 5431 5438 5444 5449 5455 5459 5466 5473 5480 5486 5492 5498 5505 5511 5517 5522 5526 5530 5533 5537 5542 5548 5554 5560
5402 5400 5398 5397 5396 5395 5395 5395 5395 5395 5396 5396 5397 5399 5401 5405 5408 5411 5414 5418 5423 5427 5433 5437 5441 5447 5451 5455 5464 5470 5476 5483 5490 5496 5502 5507 5512 5517 5521 5524 5528 5534 5539 5545
5398 5396 5395 5393 5392 5391 5390 5390 5390 5391 5391 5392 5393 5394 5395 5396 5399 5402 5406 5410 5415 5419 5423 5427 5431 5435 5440 5443 5448 5454 5460 5467 5474 5480 5486 5493 5497 5502 5508 5512 5516 5521 5526 5532